GW1265 Weather Reports


time (UTC)temp
C
wind
direction
speed
KPH
gust
KPH
rain 1hr
cm
rain 24hr
cm
rain mn
cm
humidity
%
barometer
mb
20260507224951 14 315 8.0 29.0 0.00 0.03 2.46 10 998.2
20260507224440 14 315 8.0 27.4 0.00 0.03 2.46 10 998.2
20260507223930 14 293 6.4 24.1 0.00 0.03 2.46 10 998.0
20260507223421 14 248 6.4 17.7 0.00 0.03 2.46 10 998.1
20260507222910 14 158 4.8 20.9 0.00 0.03 2.46 10 998.0
20260507222400 14 293 4.8 20.9 0.00 0.03 2.46 10 997.9
20260507221851 14 225 4.8 17.7 0.00 0.03 2.46 10 997.5
20260507221340 14 293 9.7 20.9 0.00 0.03 2.46 10 997.6
20260507220830 14 270 6.4 22.5 0.00 0.03 2.46 10 997.7
20260507220320 14 23 3.2 24.1 0.00 0.03 2.46 10 997.5
20260507215809 14 293 6.4 24.1 0.00 0.03 2.46 10 997.4
20260507215301 14 338 6.4 20.9 0.00 0.03 2.46 10 997.3
20260507214748 14 270 6.4 22.5 0.00 0.03 2.46 10 996.8
20260507213730 14 248 6.4 24.1 0.00 0.03 2.46 10 996.8
20260507213219 14 203 4.8 35.4 0.00 0.03 2.46 10 996.7
20260507212709 14 180 12.9 35.4 0.00 0.03 2.46 10 996.4
20260507212159 14 270 8.0 32.2 0.00 0.03 2.46 10 996.5
20260507211649 14 293 12.9 32.2 0.00 0.03 2.46 10 996.4
20260507211138 14 315 14.5 32.2 0.00 0.03 2.46 10 996.3
20260507210628 14 203 11.3 33.8 0.00 0.03 2.46 10 996.4
20260507210118 15 225 14.5 33.8 0.00 0.03 2.46 10 996.3
20260507205609 15 270 14.5 38.6 0.00 0.03 2.46 10 996.3
20260507205058 15 225 6.4 38.6 0.00 0.03 2.46 10 996.3
20260507204548 15 248 9.7 35.4 0.00 0.03 2.46 10 996.4
20260507203528 15 270 6.4 37.0 0.00 0.03 2.46 10 996.4
20260507202507 15 315 12.9 35.4 0.00 0.03 2.46 10 996.6
20260507201448 15 203 19.3 33.8 0.00 0.03 2.46 10 996.6
20260507200937 15 225 17.7 38.6 0.00 0.03 2.46 10 996.2
20260507200427 15 248 17.7 38.6 0.00 0.03 2.46 10 996.1
20260507195918 15 248 6.4 40.2 0.00 0.03 2.46 10 996.6
20260507194856 15 68 16.1 43.5 0.00 0.03 2.46 10 996.4
20260507194347 15 0 11.3 43.5 0.00 0.03 2.46 10 996.0
20260507193836 15 225 20.9 40.2 0.00 0.03 2.46 10 995.7
20260507193326 15 338 9.7 40.2 0.00 0.03 2.46 10 995.7
20260507192816 15 293 14.5 51.5 0.00 0.03 2.46 10 995.5
20260507192306 15 248 17.7 51.5 0.00 0.03 2.46 10 995.3
20260507191756 15 315 20.9 49.9 0.00 0.03 2.46 10 995.1
20260507191246 16 248 32.2 48.3 0.00 0.03 2.46 10 994.5
20260507190735 16 248 22.5 51.5 0.00 0.03 2.46 10 994.4
20260507190226 15 113 24.1 61.2 0.00 0.03 2.46 10 994.5
20260507185716 15 293 37.0 61.2 0.00 0.03 2.46 10 994.1
20260507184656 16 248 14.5 54.7 0.00 0.03 2.46 10 994.2
20260507183126 16 248 22.5 38.6 0.00 0.03 2.46 10 994.4
20260507182625 15 293 17.7 38.6 0.00 0.03 2.46 10 995.0
20260507181551 15 248 17.7 37.0 0.00 0.03 2.46 10 995.0
20260507181043 15 68 17.7 37.0 0.00 0.03 2.46 10 995.4
20260507180024 14 248 9.7 29.0 0.00 0.03 2.46 10 995.5
20260507175004 13 0 4.8 24.1 0.00 0.03 2.46 10 996.4
20260507174453 14 293 6.4 24.1 0.00 0.03 2.46 10 996.8
20260507173944 13 45 4.8 24.1 0.00 0.03 2.46 10 996.6
20260507173434 14 68 6.4 24.1 0.00 0.03 2.46 10 996.6
20260507172923 14 90 4.8 25.7 0.00 0.03 2.46 10 996.9
20260507172414 13 90 6.4 25.7 0.00 0.03 2.46 10 996.9
20260507171904 13 270 11.3 25.7 0.00 0.03 2.46 10 997.2
20260507171353 13 225 8.0 25.7 0.00 0.03 2.46 10 997.0
20260507170844 13 338 11.3 25.7 0.00 0.03 2.46 10 997.2
20260507165822 13 23 9.7 37.0 0.00 0.03 2.46 10 997.9
20260507165313 13 90 6.4 27.4 0.00 0.03 2.46 10 997.7
20260507164802 13 0 6.4 38.6 0.00 0.03 2.46 10 997.5
20260507164252 13 158 6.4 38.6 0.00 0.03 2.46 10 997.3
20260507163233 13 135 6.4 35.4 0.00 0.03 2.46 10 997.4
20260507162722 13 180 4.8 25.7 0.00 0.03 2.46 10 997.1
20260507162213 13 113 8.0 25.7 0.00 0.03 2.46 10 997.0
20260507161702 13 203 8.0 25.7 0.00 0.03 2.46 10 996.5
20260507161153 13 293 6.4 24.1 0.00 0.03 2.46 10 996.6
20260507155622 13 248 6.4 22.5 0.00 0.03 2.46 10 996.2
20260507154052 13 270 6.4 14.5 0.00 0.03 2.46 10 996.2
20260507153541 13 203 4.8 12.9 0.00 0.03 2.46 10 996.9
20260507153031 12 248 6.4 14.5 0.00 0.03 2.46 10 997.2
20260507152011 13 23 6.4 25.7 0.00 0.03 2.46 10 998.1
20260507151501 13 135 6.4 27.4 0.00 0.03 2.46 10 998.3
20260507150441 13 338 6.4 24.1 0.00 0.03 2.46 10 998.9
20260507145930 13 45 9.7 24.1 0.00 0.03 2.46 10 999.0
20260507145420 13 203 9.7 25.7 0.00 0.03 2.46 10 998.8
20260507144909 13 225 9.7 25.7 0.00 0.03 2.46 10 998.8
20260507144400 13 203 11.3 29.0 0.00 0.03 2.46 10 998.4
20260507143850 13 135 8.0 29.0 0.00 0.03 2.46 10 997.5
20260507143340 13 248 6.4 25.7 0.00 0.03 2.46 10 997.1
20260507142831 13 23 14.5 35.4 0.00 0.03 2.46 10 996.7
20260507141809 13 225 12.9 32.2 0.00 0.03 2.46 10 996.8
20260507141259 14 248 11.3 29.0 0.00 0.03 2.46 10 997.1
20260507140749 14 203 6.4 27.4 0.00 0.03 2.46 10 997.5
20260507140240 14 293 6.4 38.6 0.00 0.03 2.46 10 996.7
20260507135729 14 293 12.9 43.5 0.00 0.03 2.46 10 997.0
20260507135219 14 23 19.3 49.9 0.00 0.03 2.46 10 996.6
20260507134708 14 225 22.5 49.9 0.00 0.03 2.46 10 996.3
20260507134159 14 68 17.7 43.5 0.00 0.03 2.46 10 996.3
20260507133649 14 203 27.4 38.6 0.00 0.03 2.46 10 996.3
20260507133138 14 248 22.5 38.6 0.00 0.03 2.46 10 996.7
20260507132628 14 90 22.5 38.6 0.00 0.03 2.46 10 996.6
20260507132118 14 338 19.3 38.6 0.00 0.03 2.46 10 996.5
20260507131609 14 248 24.1 32.2 0.00 0.03 2.46 10 996.7
20260507131058 14 293 11.3 27.4 0.00 0.03 2.46 10 997.2
20260507130548 14 270 9.7 33.8 0.00 0.03 2.46 10 997.7
20260507130038 14 270 8.0 37.0 0.00 0.03 2.46 10 997.4
20260507125528 14 293 17.7 37.0 0.00 0.03 2.46 10 997.3
20260507125018 14 225 20.9 37.0 0.00 0.03 2.46 10 997.0
20260507123958 14 248 17.7 33.8 0.00 0.03 2.46 10 996.8
20260507123448 14 180 12.9 35.4 0.00 0.03 2.46 10 996.6
20260507122937 14 248 19.3 35.4 0.00 0.03 2.46 10 996.5
20260507122427 15 225 12.9 33.8 0.00 0.03 2.46 10 996.2
20260507121916 15 203 6.4 20.9 0.00 0.03 2.46 10 995.9
20260507121407 15 225 6.4 24.1 0.00 0.03 2.46 10 995.7
20260507120857 15 315 8.0 24.1 0.00 0.03 2.46 10 995.8
20260507120347 15 68 9.7 24.1 0.00 0.03 2.46 10 995.5
20260507115837 15 135 6.4 17.7 0.00 0.03 2.46 10 995.6
20260507115326 15 0 6.4 17.7 0.00 0.03 2.46 10 995.8
20260507114816 15 225 9.7 20.9 0.00 0.03 2.46 10 996.6
20260507113757 15 45 6.4 32.2 0.00 0.03 2.46 10 995.4
20260507113246 15 0 6.4 27.4 0.00 0.03 2.46 10 994.8
20260507112736 15 248 8.0 27.4 0.00 0.03 2.46 10 994.8
20260507112225 15 0 9.7 27.4 0.00 0.03 2.46 10 995.8
20260507111205 16 135 9.7 32.2 0.00 0.03 2.46 10 994.9
20260507110655 15 45 9.7 32.2 0.00 0.03 2.46 10 994.2
20260507110146 16 203 12.9 33.8 0.00 0.03 2.46 10 993.0
20260507105634 15 248 14.5 37.0 0.00 0.03 2.46 10 992.6
20260507105125 16 203 16.1 51.5 0.00 0.03 2.46 10 992.6
20260507104616 16 315 22.5 66.0 0.00 0.03 2.46 10 993.0
20260507104105 16 225 37.0 75.6 0.00 0.03 2.46 10 993.1
20260507103555 16 203 43.5 75.6 0.00 0.03 2.46 10 992.0
20260507103045 16 293 33.8 72.4 0.00 0.03 2.46 10 990.9
20260507102535 16 0 33.8 72.4 0.00 0.03 2.46 10 990.7
20260507102024 16 180 33.8 62.8 0.00 0.03 2.46 10 990.6
20260507101515 16 225 45.1 57.9 0.00 0.03 2.46 10 991.6
20260507101004 17 293 27.4 57.9 0.00 0.03 2.46 10 992.4
20260507100455 17 225 38.6 57.9 0.00 0.03 2.46 10 992.7
20260507095944 17 270 24.1 54.7 0.03 0.03 2.46 10 992.9
20260507095433 17 248 20.9 48.3 0.03 0.03 2.46 10 993.0
20260507093903 17 225 14.5 48.3 0.03 0.03 2.46 10 993.0
20260507093354 17 45 19.3 43.5 0.03 0.03 2.46 10 992.9
20260507092333 17 270 17.7 40.2 0.03 0.03 2.46 10 992.7
20260507091823 17 225 12.9 43.5 0.03 0.03 2.46 10 993.3
20260507091313 17 293 27.4 43.5 0.03 0.03 2.46 10 993.7
20260507090802 17 23 12.9 43.5 0.03 0.03 2.46 10 993.8
20260507090252 17 270 14.5 43.5 0.00 0.00 2.44 10 994.4
20260507085742 18 203 24.1 40.2 0.00 0.00 2.44 10 994.6
20260507084722 18 203 20.9 32.2 0.00 0.00 2.44 10 995.2
20260507083702 18 225 11.3 27.4 0.00 0.00 2.44 10 995.0
20260507083151 18 293 8.0 27.4 0.00 0.00 2.44 10 994.9
20260507082641 18 180 17.7 27.4 0.00 0.00 2.44 10 994.6
20260507082132 18 113 12.9 22.5 0.00 0.00 2.44 10 994.1
20260507081621 18 225 8.0 22.5 0.00 0.00 2.44 10 994.0
20260507080601 18 338 6.4 20.9 0.00 0.00 2.44 10 993.5
20260507080051 18 293 8.0 25.7 0.00 0.00 2.44 10 993.8
20260507075541 18 248 8.0 29.0 0.00 0.00 2.44 10 994.3
20260507075031 18 68 6.4 29.0 0.00 0.00 2.44 10 993.6
20260507074011 18 203 8.0 17.7 0.00 0.00 2.44 10 993.2
20260507072951 18 90 3.2 14.5 0.00 0.00 2.44 10 993.3
20260507072440 18 68 3.2 14.5 0.00 0.00 2.44 10 993.7
20260507071930 18 45 4.8 24.1 0.00 0.00 2.44 10 993.1
20260507071420 18 180 4.8 24.1 0.00 0.00 2.44 10 993.2
20260507070358 19 293 8.0 0.0 0.00 0.00 2.44 10 993.3
20260507070155 19 203 11.3 0.0 0.00 0.00 2.44 10 993.2
20260507065541 19 293 11.3 27.4 0.03 2.44 2.44 10 992.9
20260507065031 19 270 14.5 22.5 0.03 2.44 2.44 10 993.2
20260507064521 18 315 8.0 17.7 0.03 2.44 2.44 10 993.3
20260507064011 18 135 6.4 17.7 0.03 2.44 2.44 10 992.9
20260507062952 19 293 3.2 12.9 0.03 2.44 2.44 10 992.7
20260507061931 19 293 4.8 17.7 0.00 2.39 2.39 10 992.5
20260507060910 19 225 6.4 12.9 0.00 2.39 2.39 10 992.6
20260507055851 19 180 3.2 9.7 0.00 2.39 2.39 10 992.9
20260507055340 19 135 4.8 9.7 0.00 2.39 2.39 10 992.9
20260507054830 19 158 1.6 11.3 0.00 2.39 2.39 10 992.8
20260507054320 19 23 3.2 14.5 0.03 2.39 2.39 10 992.8
20260507053809 19 68 6.4 17.7 0.03 2.39 2.39 10 992.7
20260507053259 20 203 6.4 17.7 0.03 2.39 2.39 10 992.3
20260507052750 20 248 6.4 17.7 0.03 2.39 2.39 10 992.5
20260507052240 20 248 6.4 17.7 0.03 2.39 2.39 10 992.7
20260507051730 20 203 6.4 17.7 0.10 2.39 2.39 10 992.6
20260507051219 20 180 6.4 20.9 0.86 2.39 2.39 10 992.7
20260507050709 19 180 6.4 22.5 1.65 2.39 2.39 10 992.6
20260507050158 19 135 6.4 22.5 2.03 2.39 2.39 10 992.2
20260507045139 19 270 8.0 46.7 2.34 2.39 2.39 10 992.0
20260507044629 20 248 16.1 46.7 2.31 2.36 2.36 10 992.0
20260507044118 20 225 19.3 32.2 2.34 2.36 2.36 10 991.8
20260507043609 20 113 3.2 27.4 2.36 2.36 2.36 10 992.2
20260507043105 20 270 3.2 32.2 2.36 2.36 2.36 10 991.8
20260507042549 20 338 12.9 32.2 2.36 2.36 2.36 10 991.7
20260507042037 20 338 17.7 24.1 2.36 2.36 2.36 10 991.8
20260507041538 20 338 16.1 25.7 2.21 2.21 2.21 10 992.4
20260507041018 19 270 6.4 48.3 1.14 1.14 1.30 10 992.6
20260507035448 18 113 11.3 27.4 0.15 0.15 0.15 10 991.1
20260507034938 20 113 8.0 22.5 0.05 0.05 0.05 10 991.4
20260507034431 23 270 3.2 20.9 0.03 0.03 0.03 10 990.9
20260507033916 23 315 3.2 25.7 0.00 0.00 0.00 10 990.6
20260507033407 24 338 14.5 27.4 0.00 0.00 0.00 10 990.8
20260507032857 24 338 20.9 27.4 0.00 0.00 0.00 10 990.0
20260507032346 24 0 14.5 17.7 0.00 0.00 0.00 10 990.2
20260507031836 24 315 12.9 14.5 0.00 0.00 0.00 10 990.7
20260507031326 25 0 11.3 17.7 0.00 0.00 0.00 10 990.3
20260507030816 25 0 6.4 17.7 0.00 0.00 0.00 10 990.8
20260507030306 24 338 6.4 11.3 0.00 0.00 0.00 10 990.9
20260507025756 24 338 6.4 14.5 0.00 0.00 0.00 10 991.2
20260507025246 25 315 6.4 14.5 0.00 0.00 0.00 10 991.3
20260507024736 25 338 8.0 14.5 0.00 0.00 0.00 10 991.4
20260507024225 25 338 9.7 14.5 0.00 0.00 0.00 10 991.4
20260507023716 25 338 11.3 17.7 0.00 0.00 0.00 10 991.6
20260507023206 25 315 11.3 22.5 0.00 0.00 0.00 10 992.4
20260507022146 25 0 12.9 25.7 0.00 0.00 0.00 10 992.3
20260507021636 25 338 19.3 25.7 0.00 0.00 0.00 10 992.3
20260507021125 25 338 17.7 25.7 0.00 0.00 0.00 10 992.1
20260507020615 25 0 17.7 24.1 0.00 0.00 0.00 10 992.4
20260507020106 25 338 12.9 24.1 0.00 0.00 0.00 10 992.5
20260507015555 25 338 12.9 20.9 0.00 0.00 0.00 10 992.3
20260507015045 25 338 11.3 17.7 0.00 0.00 0.00 10 992.7
20260507014024 25 338 12.9 17.7 0.00 0.00 0.00 10 993.0
20260507013515 25 338 12.9 20.9 0.00 0.00 0.00 10 992.7
20260507013005 25 0 12.9 20.9 0.00 0.00 0.00 10 992.6
20260507012454 25 338 14.5 20.9 0.00 0.00 0.00 10 992.6
20260507011945 25 0 8.0 17.7 0.00 0.00 0.00 10 992.5
20260507011433 25 23 6.4 17.7 0.00 0.00 0.00 10 992.9
20260507010924 25 338 9.7 22.5 0.00 0.00 0.00 10 992.8
20260507010414 25 0 11.3 25.7 0.00 0.00 0.00 10 992.9
20260507005903 25 0 14.5 27.4 0.00 0.00 0.00 10 992.8
20260507005353 26 338 12.9 27.4 0.00 0.00 0.00 10 992.8
20260507004842 25 338 19.3 29.0 0.00 0.00 0.00 10 992.7
20260507004334 26 338 20.9 29.0 0.00 0.00 0.00 10 993.2
20260507003822 26 0 12.9 24.1 0.00 0.00 0.00 10 993.2
20260507003313 26 338 11.3 17.7 0.00 0.00 0.00 10 993.6
20260507002804 26 0 11.3 14.5 0.00 0.00 0.00 10 993.8
20260507002253 26 338 8.0 12.9 0.00 0.00 0.00 10 994.0
20260507001743 26 0 6.4 12.9 0.00 0.00 0.00 10 993.8
20260507001232 25 338 8.0 12.9 0.00 0.00 0.00 10 993.7
20260507000723 25 338 6.4 12.9 0.00 0.00 0.00 10 993.6
20260507000212 25 0 6.4 14.5 0.00 0.00 0.00 10 993.6
20260506235702 25 338 11.3 17.7 0.00 0.00 0.00 10 993.3
20260506235152 25 338 12.9 22.5 0.00 0.00 0.00 10 993.2
20260506234642 25 0 14.5 22.5 0.00 0.00 0.00 10 993.2
20260506234132 25 23 11.3 22.5 0.00 0.00 0.00 10 993.0
20260506233622 25 0 12.9 22.5 0.00 0.00 0.00 10 993.0
20260506233111 25 0 11.3 22.5 0.00 0.00 0.00 10 992.9
20260506232602 25 338 12.9 22.5 0.00 0.00 0.00 10 992.9
20260506232057 25 23 12.9 22.5 0.00 0.00 0.00 10 992.8
20260506231541 25 338 16.1 22.5 0.00 0.00 0.00 10 992.8
20260506231030 25 0 16.1 20.9 0.00 0.00 0.00 10 992.5
20260506230521 25 0 12.9 17.7 0.00 0.00 0.00 10 992.5
20260506230013 25 338 12.9 20.9 0.00 0.00 0.00 10 992.6